CDT,Max TemperatureF,Mean TemperatureF,Min TemperatureF,Max Dew PointF,MeanDew PointF,Min DewpointF,Max Humidity, Mean Humidity, Min Humidity, Max Sea Level PressureIn, Mean Sea Level PressureIn, Min Sea Level PressureIn, Max VisibilityMiles, Mean VisibilityMiles, Min VisibilityMiles, Max Wind SpeedMPH, Mean Wind SpeedMPH, Max Gust SpeedMPH,PrecipitationIn, CloudCover, Events, WindDirDegrees
2013-7-1,77,62,46,51,48,44,100,68,31,30.21,30.18,30.14,10,10,4,13,3,18,0.00,1,,25
2013-7-2,76,60,44,47,43,36,99,70,28,30.21,30.19,30.10,10,10,10,7,2,,0.00,2,,97
2013-7-3,79,60,43,54,46,40,100,84,28,30.13,30.11,30.03,10,9,0,7,0,,0.00,0,Fog,144
2013-7-4,68,60,56,60,58,56,100,94,67,30.05,30.03,30.02,10,9,7,6,1,,0.00,7,,215
2013-7-5,81,66,54,56,54,50,100,77,34,30.02,30.00,29.94,10,9,4,16,4,20,0.00,0,,192
2013-7-6,82,68,67,58,58,57,73,66,43,29.99,29.97,29.93,10,10,10,7,5,,0.00,1,,210
2013-7-7,82,74,66,73,66,60,100,83,55,30.00,29.94,29.92,10,8,1,10,2,,0.83,7,Rain,215
2013-7-8,82,73,64,70,66,63,100,83,51,30.02,29.98,29.91,10,8,0,13,4,18,0.45,5,Fog-Rain,29
2013-7-9,77,69,62,72,67,63,100,92,66,30.03,29.89,29.75,10,7,0,17,4,23,0.31,6,Fog-Rain,211
2013-7-10,70,60,51,66,53,46,100,73,44,30.04,29.94,29.81,10,10,5,17,10,28,0.00,4,,311
2013-7-11,79,63,48,59,50,45,100,65,31,30.15,30.10,30.04,10,8,0,12,1,,0.00,2,Fog,222
2013-7-12,80,66,52,58,54,50,100,67,37,30.15,30.11,30.06,10,10,10,15,4,22,0.00,0,,207
2013-7-13,82,72,63,58,55,53,75,63,41,30.18,30.11,30.06,10,10,10,12,5,18,0.00,1,,192
2013-7-14,83,71,59,64,58,55,100,66,41,30.26,30.22,30.18,10,10,7,15,4,18,0.00,2,,217
2013-7-15,85,72,58,69,62,58,100,71,42,30.32,30.29,30.25,10,8,0,12,2,16,0.00,4,Fog,233
2013-7-16,88,79,70,72,68,63,100,73,43,30.28,30.25,30.20,10,9,3,16,5,24,0.00,2,,235
2013-7-17,88,78,67,71,66,61,100,70,40,30.28,30.23,30.16,10,9,2,13,6,20,0.00,2,,252
2013-7-18,89,78,68,69,66,62,98,67,40,30.15,29.98,29.77,10,10,10,22,7,33,0.00,2,Rain,233
2013-7-19,82,69,57,68,61,52,83,62,44,29.84,29.75,29.68,10,10,10,22,12,32,0.00,4,Rain,277
2013-7-20,71,61,52,57,47,39,93,61,33,30.05,29.94,29.84,10,10,10,10,6,17,0.00,2,Rain,7
2013-7-21,70,60,50,57,48,42,98,69,52,30.05,30.00,29.93,10,10,10,8,5,,0.00,5,,143
2013-7-22,80,66,53,66,57,52,100,84,52,29.92,29.79,29.67,10,8,1,16,4,26,0.00,4,,226
2013-7-23,65,56,45,52,45,40,100,70,40,30.03,29.92,29.77,10,10,10,17,7,26,0.00,2,,341
2013-7-24,70,55,40,56,48,40,100,77,41,30.10,30.05,30.02,10,8,0,9,1,,0.00,5,Fog-Rain,291
2013-7-25,78,62,47,64,55,48,100,79,47,30.03,29.97,29.90,10,9,1,14,3,21,0.20,4,Rain,209
2013-7-26,70,56,45,63,56,44,100,94,55,29.99,29.91,29.85,10,8,1,17,3,26,0.32,7,Rain,277
2013-7-27,54,48,43,48,45,42,100,89,66,29.96,29.88,29.84,10,9,2,12,7,16,0.01,8,Rain,319
2013-7-28,54,48,44,52,48,44,100,95,85,30.02,29.90,29.83,10,8,2,16,8,24,0.01,8,Rain,328
2013-7-29,73,56,40,56,48,41,100,71,41,30.16,30.11,30.02,10,9,0,10,4,,0.00,2,Fog,322
2013-7-30,69,59,50,62,56,51,100,89,63,30.19,30.14,30.09,10,8,0,9,1,,0.11,7,Fog-Rain,213
2013-7-31,73,62,52,61,58,52,100,84,51,30.09,30.00,29.94,10,8,0,15,3,20,0.05,5,Fog-Rain,271